When you browse on this site, cookies collect data to enhance your experience and personalize the content and advertising you see.
Visit our Privacy Policy to learn more. By continuing to use the site, you agree to this use of cookies and data.
  • Em Portugal
  • Lista de países
  • Para 7 dias
  • Temperatura da água
  • Mapa do tempo
  • Widgets de tempo
  • user-avatar
    Iniciar Sessão

    Previsão horária em Freetown

    Hoje, 10 Abril, Sexta-feira

    Tempo Temperatura Precipitação Vento Pressão Humidade
    00:00 +28°C° 0 mm 2 m/s 754 mmHg 86%
    01:00 +28°C° 0 mm 2 m/s 753 mmHg 86%
    02:00 +28°C° 0 mm 2 m/s 753 mmHg 87%
    03:00 +28°C° 0 mm 2 m/s 753 mmHg 87%
    04:00 +28°C° 0 mm 2 m/s 753 mmHg 87%
    05:00 +28°C° 0 mm 1 m/s 753 mmHg 87%
    06:00 +29°C° 0 mm 1 m/s 753 mmHg 82%
    07:00 +30°C° 0 mm 1 m/s 754 mmHg 77%
    08:00 +31°C° 0 mm 1 m/s 755 mmHg 72%
    09:00 +31°C° 0 mm 2 m/s 754 mmHg 70%
    10:00 +31°C° 0 mm 2 m/s 754 mmHg 68%
    11:00 +33°C° 0 mm 3 m/s 754 mmHg 67%
    12:00 +33°C° 0 mm 3 m/s 753 mmHg 65%
    13:00 +34°C° 0 mm 3 m/s 753 mmHg 64%
    14:00 +34°C° 0 mm 3 m/s 752 mmHg 62%
    15:00 +33°C° 0 mm 4 m/s 752 mmHg 66%
    16:00 +33°C° 0 mm 4 m/s 752 mmHg 69%
    17:00 +32°C° 0 mm 4 m/s 752 mmHg 72%
    18:00 +30°C° 0 mm 3 m/s 753 mmHg 76%
    19:00 +30°C° 0 mm 3 m/s 754 mmHg 80%
    20:00 +29°C° 0 mm 2 m/s 754 mmHg 84%
    21:00 +29°C° 0 mm 2 m/s 754 mmHg 85%
    22:00 +29°C° 0 mm 2 m/s 754 mmHg 86%
    23:00 +29°C° 0 mm 2 m/s 754 mmHg 87%

    Amanhã, 11 Abril, Sábado

    Tempo Temperatura Precipitação Vento Pressão Humidade
    00:00 +28°C° 0 mm 2 m/s 754 mmHg 88%
    01:00 +28°C° 0 mm 2 m/s 753 mmHg 89%
    02:00 +28°C° 0 mm 2 m/s 753 mmHg 89%
    03:00 +28°C° 0.1 mm 2 m/s 753 mmHg 89%
    04:00 +28°C° 0.1 mm 1 m/s 753 mmHg 88%
    05:00 +29°C° 0.1 mm 1 m/s 753 mmHg 87%
    06:00 +29°C° 0.1 mm 1 m/s 754 mmHg 83%
    07:00 +30°C° 0.1 mm 1 m/s 755 mmHg 78%
    08:00 +31°C° 0.1 mm 1 m/s 755 mmHg 74%
    09:00 +32°C° 0.3 mm 2 m/s 755 mmHg 71%
    10:00 +34°C° 0.3 mm 2 m/s 755 mmHg 67%
    11:00 +35°C° 0.3 mm 3 m/s 754 mmHg 64%
    12:00 +34°C° 0.4 mm 3 m/s 754 mmHg 66%
    13:00 +34°C° 0.4 mm 3 m/s 753 mmHg 68%
    14:00 +33°C° 0.4 mm 4 m/s 753 mmHg 69%
    15:00 +33°C° 0.1 mm 4 m/s 752 mmHg 71%
    16:00 +32°C° 0.1 mm 4 m/s 752 mmHg 73%
    17:00 +32°C° 0.1 mm 4 m/s 752 mmHg 74%
    18:00 +30°C° 0 mm 4 m/s 753 mmHg 78%
    19:00 +30°C° 0 mm 3 m/s 754 mmHg 81%
    20:00 +29°C° 0 mm 3 m/s 755 mmHg 84%
    21:00 +29°C° 0.5 mm 2 m/s 755 mmHg 85%
    22:00 +29°C° 0.5 mm 2 m/s 755 mmHg 86%
    23:00 +29°C° 0.5 mm 1 m/s 755 mmHg 87%

    Depois de amanhã, 12 Abril, Domingo

    Tempo Temperatura Precipitação Vento Pressão Humidade
    00:00 +29°C° 1 mm 1 m/s 755 mmHg 86%
    01:00 +28°C° 1 mm 1 m/s 754 mmHg 86%
    02:00 +28°C° 1 mm 1 m/s 754 mmHg 85%
    03:00 +28°C° 0 mm 1 m/s 754 mmHg 85%
    04:00 +28°C° 0 mm 2 m/s 754 mmHg 85%
    05:00 +28°C° 0 mm 2 m/s 754 mmHg 85%
    06:00 +29°C° 0 mm 2 m/s 754 mmHg 82%
    07:00 +30°C° 0 mm 2 m/s 755 mmHg 79%
    08:00 +31°C° 0 mm 1 m/s 755 mmHg 76%
    09:00 +31°C° 0 mm 2 m/s 755 mmHg 73%
    10:00 +32°C° 0 mm 2 m/s 755 mmHg 71%
    11:00 +33°C° 0 mm 3 m/s 755 mmHg 68%
    12:00 +33°C° 0.2 mm 3 m/s 754 mmHg 68%
    13:00 +33°C° 0.2 mm 3 m/s 753 mmHg 68%
    14:00 +33°C° 0.2 mm 3 m/s 753 mmHg 69%
    15:00 +33°C° 0.1 mm 4 m/s 752 mmHg 71%
    16:00 +32°C° 0.1 mm 4 m/s 752 mmHg 73%
    17:00 +32°C° 0.1 mm 4 m/s 752 mmHg 74%
    18:00 +30°C° 0 mm 4 m/s 753 mmHg 78%
    19:00 +30°C° 0 mm 3 m/s 753 mmHg 81%
    20:00 +29°C° 0 mm 3 m/s 754 mmHg 85%
    21:00 +29°C° 0 mm 3 m/s 754 mmHg 85%
    22:00 +29°C° 0 mm 3 m/s 754 mmHg 86%
    23:00 +29°C° 0 mm 2 m/s 754 mmHg 87%

    13 Abril, Segunda-feira

    Tempo Temperatura Precipitação Vento Pressão Humidade
    00:00 +29°C° 0 mm 2 m/s 754 mmHg 87%
    01:00 +28°C° 0 mm 3 m/s 753 mmHg 87%
    02:00 +28°C° 0 mm 3 m/s 753 mmHg 86%
    03:00 +28°C° 0 mm 2 m/s 753 mmHg 86%
    04:00 +28°C° 0 mm 2 m/s 753 mmHg 85%
    05:00 +28°C° 0 mm 2 m/s 753 mmHg 84%
    06:00 +29°C° 0 mm 2 m/s 753 mmHg 82%
    07:00 +29°C° 0 mm 2 m/s 754 mmHg 80%
    08:00 +29°C° 0 mm 2 m/s 754 mmHg 78%
    09:00 +30°C° 0 mm 3 m/s 754 mmHg 74%
    10:00 +31°C° 0 mm 3 m/s 754 mmHg 70%
    11:00 +33°C° 0 mm 3 m/s 754 mmHg 66%
    12:00 +33°C° 0 mm 3 m/s 753 mmHg 65%
    13:00 +33°C° 0 mm 4 m/s 753 mmHg 65%
    14:00 +33°C° 0 mm 4 m/s 752 mmHg 65%
    15:00 +33°C° 0.1 mm 4 m/s 752 mmHg 67%
    16:00 +32°C° 0.1 mm 4 m/s 752 mmHg 69%
    17:00 +32°C° 0.1 mm 4 m/s 751 mmHg 71%
    18:00 +30°C° 0 mm 4 m/s 752 mmHg 74%
    19:00 +29°C° 0 mm 3 m/s 753 mmHg 77%
    20:00 +29°C° 0 mm 3 m/s 753 mmHg 81%
    21:00 +29°C° 0 mm 2 m/s 753 mmHg 81%
    22:00 +29°C° 0 mm 2 m/s 754 mmHg 82%
    23:00 +28°C° 0 mm 2 m/s 754 mmHg 82%

    14 Abril, Terça-feira

    Tempo Temperatura Precipitação Vento Pressão Humidade
    00:00 +28°C° 0 mm 2 m/s 753 mmHg 83%
    01:00 +28°C° 0 mm 2 m/s 753 mmHg 83%
    02:00 +28°C° 0 mm 2 m/s 753 mmHg 83%
    03:00 +28°C° 0 mm 2 m/s 753 mmHg 83%
    04:00 +28°C° 0 mm 2 m/s 753 mmHg 83%
    05:00 +28°C° 0 mm 2 m/s 753 mmHg 83%
    06:00 +28°C° 0 mm 2 m/s 754 mmHg 79%
    07:00 +29°C° 0 mm 2 m/s 754 mmHg 76%
    08:00 +30°C° 0 mm 2 m/s 754 mmHg 72%
    09:00 +31°C° 0.1 mm 3 m/s 754 mmHg 67%
    10:00 +33°C° 0.1 mm 3 m/s 754 mmHg 63%
    11:00 +33°C° 0.1 mm 3 m/s 754 mmHg 58%
    12:00 +34°C° 0.2 mm 3 m/s 754 mmHg 57%
    13:00 +34°C° 0.2 mm 4 m/s 753 mmHg 55%
    14:00 +34°C° 0.2 mm 4 m/s 752 mmHg 54%
    15:00 +33°C° 0.3 mm 4 m/s 752 mmHg 56%
    16:00 +33°C° 0.3 mm 3 m/s 752 mmHg 59%
    17:00 +31°C° 0.3 mm 3 m/s 752 mmHg 61%
    18:00 +30°C° 0.1 mm 3 m/s 752 mmHg 65%
    19:00 +30°C° 0.1 mm 3 m/s 752 mmHg 68%
    20:00 +29°C° 0.1 mm 2 m/s 753 mmHg 72%
    21:00 +29°C° 0 mm 2 m/s 753 mmHg 73%
    22:00 +29°C° 0 mm 2 m/s 753 mmHg 73%
    23:00 +29°C° 0 mm 1 m/s 753 mmHg 74%

    15 Abril, Quarta-feira

    Tempo Temperatura Precipitação Vento Pressão Humidade
    00:00 +28°C° 0 mm 1 m/s 753 mmHg 74%
    01:00 +28°C° 0 mm 1 m/s 752 mmHg 75%
    02:00 +28°C° 0 mm 2 m/s 752 mmHg 75%
    03:00 +28°C° 0 mm 1 m/s 752 mmHg 75%
    04:00 +28°C° 0 mm 1 m/s 752 mmHg 75%
    05:00 +28°C° 0 mm 1 m/s 752 mmHg 75%
    06:00 +29°C° 0 mm 1 m/s 753 mmHg 70%
    07:00 +30°C° 0 mm 2 m/s 753 mmHg 66%
    08:00 +31°C° 0 mm 2 m/s 754 mmHg 61%
    09:00 +32°C° 0 mm 2 m/s 754 mmHg 58%
    10:00 +34°C° 0 mm 2 m/s 754 mmHg 54%
    11:00 +35°C° 0 mm 2 m/s 754 mmHg 51%
    12:00 +35°C° 0 mm 3 m/s 753 mmHg 52%
    13:00 +35°C° 0 mm 3 m/s 752 mmHg 53%
    14:00 +34°C° 0 mm 4 m/s 752 mmHg 54%
    15:00 +33°C° 0.1 mm 4 m/s 751 mmHg 57%
    16:00 +33°C° 0.1 mm 4 m/s 751 mmHg 61%
    17:00 +32°C° 0.1 mm 4 m/s 751 mmHg 64%
    18:00 +32°C° 0.2 mm 4 m/s 752 mmHg 68%
    19:00 +30°C° 0.2 mm 4 m/s 753 mmHg 72%
    20:00 +29°C° 0.2 mm 4 m/s 753 mmHg 77%
    21:00 +29°C° 0.1 mm 3 m/s 754 mmHg 78%
    22:00 +29°C° 0.1 mm 3 m/s 754 mmHg 80%
    23:00 +29°C° 0.1 mm 2 m/s 754 mmHg 81%
    Mostrar mais